This is the latest recevied weather packets stored in our database for station/object KR4ELZ. If no packets are shown the sender has not sent any weather packets the latest 10 day(s).
| Time | Temp. | Humidity | Pressure | Rain* | Wind** | Luminosity | Snow |
|---|---|---|---|---|---|---|---|
| 1777466734 | 19.44° C | 99% | 1012.3 hPa | 0 mm | - | 21 W/m² | - |
| 1777466432 | 19.44° C | 99% | 1012 hPa | 0 mm | - | 42 W/m² | - |
| 1777466126 | 19.44° C | 99% | 1012.1 hPa | 0 mm | - | 61 W/m² | - |
| 1777465824 | 18.89° C | 99% | 1011.9 hPa | 0 mm | - | 34 W/m² | - |
| 1777465519 | 18.89° C | 99% | 1011.8 hPa | 0 mm | - | 14 W/m² | - |
| 1777465214 | 18.89° C | 99% | 1011.9 hPa | 1.78 mm | - | 12 W/m² | - |
| 1777464909 | 18.89° C | 99% | 1012.1 hPa | 4.83 mm | - | 8 W/m² | - |
| 1777464604 | 18.89° C | 99% | 1012 hPa | 4.32 mm | - | 8 W/m² | - |
| 1777464301 | 18.89° C | 99% | 1012 hPa | 1.27 mm | - | 4 W/m² | - |
| 1777463996 | 18.89° C | 99% | 1011.8 hPa | 0 mm | - | 4 W/m² | - |
| 1777463691 | 18.89° C | 99% | 1011.6 hPa | 0 mm | - | 2 W/m² | - |
| 1777463386 | 18.89° C | 99% | 1011.7 hPa | 0 mm | - | 2 W/m² | - |
| 1777463083 | 18.89° C | 99% | 1011.6 hPa | 0 mm | - | 5 W/m² | - |
| 1777462779 | 18.89° C | 99% | 1011.3 hPa | 0 mm | - | 4 W/m² | - |
| 1777462474 | 18.89° C | 99% | 1011.5 hPa | 0 mm | - | 3 W/m² | - |
| 1777462171 | 18.33° C | 99% | 1011.4 hPa | 0 mm | - | 2 W/m² | - |
| 1777461867 | 18.33° C | 99% | 1011.4 hPa | 0 mm | - | 2 W/m² | - |
| 1777461564 | 18.33° C | 99% | 1011.2 hPa | 0 mm | - | 2 W/m² | - |
| 1777461259 | 18.33° C | 99% | 1011.3 hPa | 0 mm | - | 1 W/m² | - |
| 1777460955 | 18.33° C | 99% | 1011.4 hPa | 0 mm | - | 1 W/m² | - |
| 1777460651 | 18.33° C | 99% | 1011.3 hPa | 0 mm | - | 0 W/m² | - |
| 1777460346 | 18.33° C | 99% | 1011.3 hPa | 0 mm | - | 0 W/m² | - |
| 1777460043 | 18.33° C | 99% | 1011.4 hPa | 0 mm | - | 0 W/m² | - |
| 1777459740 | 18.33° C | 99% | 1011.5 hPa | 0 mm | - | 0 W/m² | - |
| 1777459436 | 18.33° C | 99% | 1011.3 hPa | 0 mm | - | 0 W/m² | - |
* Rain latest hour (hover to see other rain measurements)
** Current wind speed in m/s (hover to see current wind gust speed)